Weather Roundup
Issued by NWS Corpus Christi, TX

Current Version | Previous Version | Text Only | Print | Product List | Glossary On
Versions: 1 2 3 4 5 6 7 8 9 10 11 12 13 14 15 16 17 18 19 20 21 22 23 24 25 26 27 28 29 30 31 32 33 34 35 36 37 38 39 40 41 42 43 44 45 46 47 48 49 50
000
ASUS44 KCRP 032310
HRRCRP

SOUTH TEXAS REGIONAL WEATHER ROUNDUP
NATIONAL WEATHER SERVICE CORPUS CHRISTI TX
500 PM CST TUE MAR 03 2015


TXZ229>244-040000-
...CORPUS CHRISTI AREA OBSERVATIONS...

CITY           SKY/WX    TMP DP  RH WIND       PRES   REMARKS
CORPUS CHRISTI CLOUDY    65  62  90 CALM      29.83F FOG
NAS CORPUS CHR CLOUDY    68  67  96 S15       29.82F FOG
ROCKPORT       CLOUDY    70  66  87 S10       29.84S
KINGSVILLE NAS CLOUDY    65  64  97 NE5       29.82F FOG
ALICE          CLOUDY    64  60  87 CALM      29.81F
FALFURRIAS     SUNNY     69  62  79 CALM      29.80F
$$

...VICTORIA AREA OBSERVATIONS...

CITY           SKY/WX    TMP DP  RH WIND       PRES   REMARKS
VICTORIA       MOSUNNY   73  66  78 S15G26    29.85S
BEEVILLE         N/A     60  60 100 CALM      29.83  FOG
PLEASANTON     CLOUDY    59  56  87 E5        29.84F FOG
SAN ANTONIO    CLOUDY    60  56  86 SE5       29.84F FOG
$$

...LAREDO AREA OBSERVATIONS...

CITY           SKY/WX    TMP DP  RH WIND       PRES   REMARKS
LAREDO         CLOUDY    67  60  78 SE12      29.80F
COTULLA        CLOUDY    60  56  86 SE7       29.82F
DEL RIO        MOSUNNY   60  50  69 SE9       29.79F
MCALLEN        SUNNY     81  65  58 SE20G30   29.77S
HEBBRONVILLE   CLOUDY   N/A N/A N/A SE8       29.81F
$$

...OTHER TEXAS OBSERVATIONS...

CITY           SKY/WX    TMP DP  RH WIND       PRES   REMARKS
BROWNSVILLE    PTSUNNY   76  68  76 SE15G28   29.82S
HOUSTON        PTSUNNY   77  62  59 S12G23    29.86F
COL. STATION   PTSUNNY   74  63  68 S10       29.84S
AUSTIN         FOG       58  58 100 S7        29.85F VSB 1
WACO           FOG       51  50  96 E3        29.84S VSB 1/4
FORT WORTH     CLOUDY    52  51  97 S8        29.82F FOG
WICHITA FALLS  PTSUNNY   59  48  67 S5        29.79S
LUBBOCK        CLOUDY    60  42  51 NW7       29.81S
EL PASO        PTSUNNY   60  43  53 W6        29.83F
$$

...MARINE OBSERVATIONS...

STATION/POSITION TIME  SKY/WX   TEMP    WIND        PRES    VSBY  WAVE   SWELL
                                AIR SEA DIR/SP/G                  HT/PER HT/PER
                 (UTC)          (F)     (DEG/KT/KT) (MB)    (MI)  (FT/S) (FT/S)
PORT ARANSAS     2300            65 57  130/ 11/ 11 1010.6F
BUOY 90 E PORT A 2300            72 69  160/ 16/ 19 1011.7F         3/ 5
BUOY 45 SE BAFFI 2300            69 67  160/ 12/ 14 1009.9F         3/ 5   2/ 6
BUOY 200 E PT IS 2300            72 71  140/ 14/ 16 1012.8F         2/ 4   2/ 8
BUOY 15 E GALVES 2300            63 62  130/  6/  8 1012.5F         1/ 7   2/ 7
$$


USA.gov is the U.S. government's official web portal to all federal, state and local government web resources and services.